Regional Weather Roundup
Issued by NWS

Home | Current Version | Previous Version | Graphics & Text | Print | Product List | Glossary On
Versions: 1 2 3 4 5 6 7 8 9 10 11 12 13 14 15 16 17 18 19 20 21 22 23 24 25 26 27 28 29 30 31 32 33 34 35 36 37 38 39 40 41 42 43 44 45 46 47 48 49 50
000
ASUS43 KBIS 241710
RWRND

NORTH DAKOTA REGIONAL WEATHER ROUNDUP
NATIONAL WEATHER SERVICE BISMARCK ND
1200 PM CDT WED AUG 24 2016

NOTE: "FAIR" INDICATES FEW OR NO CLOUDS BELOW 12,000 FEET WITH NO
SIGNIFICANT WEATHER AND/OR OBSTRUCTIONS TO VISIBILITY.


NDZ001>003-009>011-017-241800-
NORTHWEST NORTH DAKOTA

CITY           SKY/WX    TMP DP  RH WIND       PRES   REMARKS
WILLISTON      CLOUDY    62  46  55 W24G32    30.03R
MINOT          MOSUNNY   67  48  50 W18G35    29.92S
MINOT AFB      MOSUNNY   65  49  56 W23G30    29.91R
$$

NDZ018>021-031>035-040>046-241800-
SOUTHWEST NORTH DAKOTA

CITY           SKY/WX    TMP DP  RH WIND       PRES   REMARKS
BISMARCK       CLOUDY    68  50  52 W21G30    30.02S
DICKINSON      PTSUNNY   65  44  46 W26G35    30.05R
GARRISON         N/A     64  48  56 W20G35    29.97S
HETTINGER ARPT CLOUDY    67  47  48 W26G35    30.13R
$$

NDZ004>008-012>016-024-026-027-054-241800-
NORTHEAST NORTH DAKOTA

CITY           SKY/WX    TMP DP  RH WIND       PRES   REMARKS
GRAND FORKS    MOSUNNY   71  54  54 W18G28    29.86R
GRND FRKS AFB  SUNNY     71  54  55 W18G28    29.88R
DEVILS LAKE    PTSUNNY   66  52  60 W23       29.90R
$$

NDZ022-023-025-028>030-036>039-047>053-241800-
SOUTHEAST NORTH DAKOTA

CITY           SKY/WX    TMP DP  RH WIND       PRES   REMARKS
FARGO          SUNNY     73  53  49 W21G30    29.90F
JAMESTOWN      MOSUNNY   67  53  61 W16G25    29.96R
$$





USA.gov is the U.S. government's official web portal to all federal, state and local government web resources and services.